CZ-6A DEB, 54337

Orbit data source: Space-Track

CZ-6A DEB, 54337 is space debris in SSO originally from a launch on Fri, 11 Nov 2022 UTC launched from the Taiyaun Space Center, China (TSC). Debris objects in space refer to the collection of defunct objects orbiting the Earth. Examples of debris include non-operational satellites, rocket bodies, and fragments generated from explosions, collisions, or faulty payload assembly.

Loading next visibility...
Identifier
54337, 2022-151CG
Orbit
SSO
Country
Flag of CNCN / PRC
Related business
Manufacturer
SAST
Mission
Spacecraft
Bus & Motor
Unknown
Mass
Unknown
Launch date (UTC)
2022-11-11 (4 years ago)
Launch vehicle
Unknown
Launch site
Taiyaun Space Center, China (TSC)
Object type
Payload
Rocket body
Debris
Shape & HBR
Unknown shape, 0.1 m
Radar Cross Section
Medium (>0.1 m² and <1 m²)

Expand to show TLE details & history
Last TLE update: 2 days ago

TLE from 2 days ago
0 CZ-6A DEB
1 54337U 22151CG  26171.44362495  .00000387  00000-0  24182-3 0  9995
2 54337  98.8493 170.8641 0049458 335.5864  24.2964 14.09938367184826
Epoch: 2026-06-20T10:38Z
TLE epoch observation values (Epoch: 2026-06-20T10:38:49.195Z)
Latitude
-0.00008°
Longitude
102.50096°
Altitude
829.877 km
Speed
7.455 km/s
True Right ascension
11h 23m 27s
True Declination
0° 00' 00"
Sunlit
Object was in daylight at epoch
Visualization orbit readout
Latitude
Unknown
Longitude
Unknown
Altitude
Unknown
Speed
Unknown
Apparent Right ascension
Unknown
Apparent Declination
Unknown
Sunlit
N/A
Visualization observer readout
Local Sidereal Time
21:37:19
Azimuth
Unknown
Elevation
Unknown
Doppler factor
Unknown
Orbital elements
Apogee altitude
892.544 km
Perigee altitude
820.979 km
Semi-major axis
7,234.898 km
Eccentricity
0.00495
Inclination
98.8493°
RAAN
170.8641°
Arg. of periapsis
335.5864°
True anomaly
24.53091°
Mean anomaly
24.2964°
Eccentric anomaly
24.41352°
Mean motion
3.52691 °/min
Orbital period
102.07 mins
BSTAR
0.00024182
Loading maneuver chart data...
Computing Atmospheric mass density...
Loading historical data...
Loading historical data...
Loading historical data...
Loading historical data...
Loading historical data...
Loading historical data...
Loading historical data...

Documentation

Showing up to 5 results
|